CREW DRAGON DEMO-2

Last updated on Sun Aug 02 2020 00:02:08 GMT+0000 (Coordinated Universal Time)

1 45623U 20033A 20213.16282241 .00051857 00000-0 93838-3 0 9992 2 45623 51.6433 130.8084 0000656 325.4979 181.1476 15.49147555 9513

Satellite not in orbit